Theta_e
336 336 337 337 333 334 333 335 336 336 336 336 335 335 335 334 333 334 332 333 334 337 335 332 327 322 324 328 333 333 329 327 333 335 333 331 328 328 327 326 322 320 319
336 337 339 337 335 334 332 334 335 336 336 336 335 335 335 334 334 335 334 334 335 338 335 332 327 322 323 330 334 331 325 330 334 333 331 330 329 326 327 326 322 314 309
337 337 328 334 336 332 333 333 333 334 335 336 336 335 335 334 334 335 334 334 335 337 333 333 328 324 327 333 333 329 325 330 332 333 331 330 329 327 324 320 311 304 304
332 335 334 333 334 335 334 333 333 333 335 336 336 335 335 335 335 335 334 333 334 336 335 333 330 329 332 334 331 323 324 328 331 332 330 329 328 324 314 306 304 303 303
333 332 331 331 327 325 333 335 330 331 333 334 336 336 335 335 335 335 334 333 333 336 337 335 334 334 334 332 320 318 323 328 331 330 328 328 325 312 305 304 304 304 305
329 333 333 331 329 330 328 331 332 333 330 332 334 336 336 336 335 335 335 333 334 337 338 332 332 334 331 318 316 319 325 329 329 328 328 321 310 305 309 316 312 317 312
327 329 329 331 331 327 330 332 330 332 332 333 333 334 336 336 336 335 335 333 334 337 337 332 331 331 318 318 324 326 329 330 328 326 321 311 306 311 320 320 319 315 316
327 327 328 328 330 327 325 326 331 332 332 334 333 333 334 334 334 334 334 333 335 336 336 333 332 321 319 327 328 328 329 328 324 322 310 306 315 321 320 319 318 318 316
322 327 328 327 327 328 329 328 328 328 330 331 333 333 333 334 334 335 335 335 336 335 327 325 321 320 327 326 324 323 324 319 313 308 307 310 320 320 319 316 318 317 316
316 321 325 327 327 327 327 327 326 327 328 327 326 326 324 327 333 330 335 335 333 326 322 320 323 327 324 317 314 311 310 308 305 306 307 316 319 319 317 316 315 316 316
309 313 317 323 327 326 327 326 325 323 323 324 322 321 322 322 321 324 327 332 330 329 320 325 326 321 315 311 308 305 304 304 306 307 310 314 319 318 316 316 314 314 316
308 308 311 314 319 325 326 326 325 322 322 322 321 321 322 321 321 321 322 322 322 324 324 322 319 314 309 305 303 303 303 305 307 308 313 318 317 317 315 315 315 314 314
307 307 307 309 311 316 323 325 325 323 322 321 321 321 322 321 320 321 321 318 316 315 318 316 312 307 303 302 302 303 304 306 307 310 316 315 317 315 315 315 314 314 313
306 306 307 307 308 310 314 323 324 323 324 323 321 321 321 321 321 323 321 321 307 304 307 309 306 303 303 302 302 303 304 306 307 308 316 316 321 316 316 313 313 313 313
304 304 305 307 307 308 310 316 322 324 324 323 321 320 321 322 321 319 320 321 314 306 305 305 303 302 302 302 303 304 306 307 306 308 314 316 318 317 315 315 314 313 312
303 304 304 305 306 307 308 315 320 322 322 323 321 319 320 321 320 321 321 322 321 311 303 302 302 302 302 302 304 306 307 307 307 306 311 316 317 315 314 313 313 313 312
302 303 303 304 306 307 308 315 320 325 322 322 321 319 320 321 321 320 322 321 320 317 305 302 302 302 302 303 304 307 306 306 306 306 305 314 314 313 311 311 310 311 311
302 303 303 304 305 309 315 316 321 324 322 322 322 319 319 319 318 319 318 319 319 319 315 305 302 302 302 303 303 305 306 305 304 304 304 306 309 310 309 307 304 306 310
303 304 304 304 305 310 317 318 319 320 322 322 322 322 321 319 319 319 319 318 317 317 317 317 307 303 302 302 302 303 303 303 303 303 303 304 305 305 305 303 302 300 304
303 305 305 305 308 311 315 317 318 318 321 322 321 322 322 322 321 320 319 318 318 319 317 317 311 303 302 302 302 301 301 301 301 301 301 301 301 301 301 301 300 299 299
303 305 305 305 308 310 313 315 315 317 319 320 320 320 320 321 321 321 319 320 320 319 317 315 310 305 303 301 301 301 301 301 301 301 301 300 300 300 300 300 300 299 299
302 304 304 305 307 309 311 314 316 316 316 318 319 318 319 319 320 320 320 320 319 315 315 314 311 307 303 302 302 301 301 301 301 301 301 300 300 300 300 300 299 299 299
297 302 304 305 306 307 309 311 314 314 314 315 317 317 317 315 316 316 316 316 316 316 313 310 309 308 306 306 303 305 305 304 304 301 301 301 300 300 300 300 299 299 299
292 293 298 303 305 307 308 310 312 312 312 313 315 315 315 315 313 314 314 313 312 313 308 305 304 305 303 303 304 305 305 306 305 301 301 300 300 300 300 300 300 299 299
292 291 292 293 297 303 308 309 310 310 310 311 312 311 311 314 312 312 310 310 310 309 307 306 303 303 302 304 304 303 304 303 303 303 301 300 301 300 300 300 300 299 299
292 292 292 291 292 292 294 299 304 307 307 307 308 309 308 308 309 309 309 308 308 307 307 303 301 303 303 305 302 301 300 299 299 299 300 300 300 301 300 300 300 299 299
Wind_Speed
15 9 8 8 9 7 9 8 7 8 9 9 9 8 8 9 10 9 9 9 8 8 9 8 8 9 9 8 7 8 7 10 11 11 8 8 8 6 6 6 5 4 3
17 12 9 5 6 7 6 8 8 7 7 9 9 9 8 9 10 9 8 8 8 10 7 7 9 10 10 9 8 7 8 10 9 7 5 6 6 3 3 3 4 5 5
17 15 11 6 7 6 7 6 7 6 6 8 9 10 9 9 9 8 8 9 10 11 7 8 9 11 10 9 8 8 8 9 5 6 2 6 7 6 3 4 5 5 3
15 17 16 13 9 8 8 4 5 6 6 8 9 10 11 11 10 10 9 10 11 11 9 10 10 10 10 9 8 8 8 5 4 4 3 7 10 8 3 5 4 2 2
16 15 14 17 23 28 13 5 8 6 8 9 10 10 11 12 12 12 11 12 12 13 12 9 11 11 10 8 8 9 8 6 6 1 3 7 10 5 5 2 2 2 3
15 17 16 18 13 9 9 12 5 9 14 12 12 11 12 13 14 14 14 14 14 16 16 12 10 10 9 9 10 9 9 6 5 5 7 6 5 4 4 6 8 11 8
17 16 14 13 11 22 20 13 9 13 12 13 13 11 13 15 15 16 16 16 16 18 22 16 12 11 10 10 10 11 10 10 8 5 5 6 2 4 8 11 10 11 11
18 16 13 12 13 10 13 22 16 12 12 11 12 11 12 14 17 18 18 18 20 22 21 12 11 11 12 12 11 11 10 8 7 6 5 0 6 9 9 9 11 10 12
16 15 14 14 13 13 12 8 16 18 16 13 8 4 6 14 12 19 20 19 22 20 13 11 14 13 12 12 12 12 11 9 7 5 1 5 8 10 8 6 11 11 10
16 16 15 13 14 15 14 13 12 13 18 19 21 22 17 17 11 3 24 23 21 16 13 14 14 13 13 13 13 13 10 8 6 3 4 7 14 8 8 8 8 11 8
15 16 17 16 12 10 14 10 10 9 13 19 29 31 33 31 34 20 18 24 19 13 14 15 15 14 13 12 12 12 9 7 3 5 6 12 11 6 8 10 8 8 8
23 18 17 17 17 14 10 10 11 8 11 11 13 16 16 21 19 17 8 20 15 17 16 15 13 11 11 11 12 11 9 7 5 7 8 13 9 7 8 8 9 7 9
25 22 18 17 15 16 13 10 10 8 9 8 9 8 13 7 6 14 18 13 17 15 16 14 12 11 12 12 12 10 9 8 8 9 14 8 11 4 9 8 7 6 7
29 26 21 17 16 14 13 11 9 8 8 8 6 6 7 6 7 10 11 15 15 12 12 13 12 12 12 12 12 11 10 9 9 9 15 12 14 2 9 5 7 6 7
28 25 22 18 16 16 14 10 9 9 7 5 5 6 4 4 2 3 5 10 11 9 8 10 11 12 12 12 12 10 10 10 11 11 15 16 12 9 10 9 7 5 5
26 24 21 18 16 16 14 12 10 11 8 4 0 4 4 1 6 5 4 9 14 14 9 10 11 11 11 11 11 11 10 11 11 12 15 17 19 18 15 11 11 8 4
26 24 22 17 15 14 13 10 10 12 11 8 7 5 7 7 3 6 8 4 1 13 16 9 9 10 10 10 10 10 10 9 9 11 11 18 14 10 9 9 10 12 6
24 23 21 18 14 12 9 9 9 11 11 12 11 9 8 8 9 9 6 3 2 1 13 14 12 8 8 9 10 10 9 8 8 8 10 13 16 13 12 10 5 8 10
24 23 21 18 13 9 7 9 9 8 11 11 9 10 9 9 9 10 8 9 9 10 2 9 14 8 6 9 11 10 8 7 7 7 8 10 13 13 12 7 7 6 8
21 20 19 18 11 8 7 7 8 8 10 12 14 15 12 13 12 10 10 10 12 14 7 13 16 16 9 9 10 10 8 7 6 6 6 8 9 10 9 8 6 6 6
19 19 18 19 16 11 8 8 9 8 8 9 13 15 15 16 16 14 15 12 12 17 9 13 17 17 15 7 9 8 8 7 6 6 5 6 7 7 7 6 6 6 6
19 17 16 15 15 12 9 6 5 7 9 4 6 11 14 15 18 18 17 16 13 15 12 13 15 19 18 15 8 6 5 5 6 6 6 6 7 7 6 6 5 6 6
18 19 17 14 14 12 10 11 9 8 9 9 6 7 9 7 11 14 15 14 13 11 14 16 16 14 18 20 17 6 4 5 7 6 6 7 8 7 8 7 6 6 6
19 18 17 14 11 11 10 8 7 8 8 7 7 6 6 7 8 10 12 14 13 14 15 16 16 14 13 15 15 13 8 6 4 4 6 6 7 7 8 9 9 8 8
15 18 19 20 17 13 12 10 8 6 5 3 3 4 5 6 7 6 9 11 13 14 15 17 17 17 16 16 17 12 13 10 8 6 4 7 8 8 9 9 9 10 9
12 14 16 18 20 21 20 16 13 13 10 6 3 2 4 3 2 4 7 9 13 13 16 16 20 18 18 16 12 14 10 9 9 9 8 7 8 8 10 11 10 11 11
Wind_Direction
342 286 269 245 201 209 220 208 194 189 184 180 176 179 184 180 177 181 180 182 182 171 156 155 151 144 137 134 131 118 111 107 109 114 94 55 49 60 62 56 49 39 26
332 311 240 228 228 208 220 228 211 203 198 197 196 189 187 183 186 186 191 185 187 176 172 167 161 153 146 140 137 132 125 123 127 113 64 38 23 11 27 8 1 350 329
330 329 329 314 257 247 222 218 230 214 222 215 214 210 203 197 196 201 204 196 188 193 199 189 169 158 149 147 146 150 140 141 144 124 21 5 344 335 8 345 339 336 347
339 331 341 295 356 305 277 221 235 243 231 235 225 225 217 214 212 214 216 209 202 207 201 191 170 160 151 158 159 168 160 146 144 134 333 336 316 322 343 327 347 10 13
352 347 325 331 305 324 319 267 246 269 256 251 238 235 230 225 222 223 220 216 211 204 187 167 166 156 157 165 168 179 174 169 150 227 295 297 301 323 343 15 4 35 64
354 357 345 335 352 317 295 313 296 266 261 264 245 240 239 236 231 229 225 219 211 198 188 187 185 165 163 166 174 181 186 181 197 235 262 297 308 343 34 63 64 86 74
350 356 1 351 330 290 316 300 282 261 254 268 257 250 255 253 246 239 230 223 214 201 196 182 179 174 168 173 183 189 192 178 219 243 280 296 329 55 98 88 91 83 93
338 350 355 356 345 333 293 318 300 283 249 256 245 239 235 240 258 246 231 223 211 211 205 174 179 179 178 177 192 202 203 209 243 265 284 40 97 105 96 100 98 91 96
339 331 353 7 3 349 352 324 314 314 291 254 264 278 283 258 241 246 221 218 218 184 178 180 184 182 179 183 198 210 214 223 239 254 243 109 108 104 114 103 93 96 98
341 343 342 351 7 351 353 357 349 321 301 278 318 345 13 360 258 268 214 210 183 171 169 181 183 182 183 189 201 212 221 234 234 228 141 130 110 129 117 96 101 97 98
341 341 332 339 347 353 350 359 355 343 327 320 305 324 315 323 333 335 114 183 178 173 167 187 187 187 188 198 208 213 218 227 200 159 147 101 116 130 120 106 100 105 90
345 347 336 329 327 323 326 340 337 342 345 355 5 340 291 312 328 306 32 129 161 165 188 190 189 190 196 204 210 207 202 202 181 157 126 119 130 132 110 114 107 99 96
334 335 333 324 323 313 319 321 325 329 332 346 355 313 286 289 321 320 276 304 143 155 178 184 184 190 193 199 204 202 198 188 180 155 123 143 133 122 111 117 110 102 85
327 324 325 321 314 305 306 310 308 315 325 343 358 359 308 276 264 238 222 274 143 152 183 183 183 187 189 196 202 196 193 185 178 160 133 126 148 96 128 118 110 99 90
323 321 318 318 312 307 295 295 294 292 311 331 20 27 15 242 326 201 191 216 199 155 183 187 182 180 183 191 197 193 189 181 175 160 140 146 140 130 115 126 105 87 87
330 327 324 313 311 304 296 288 286 281 292 290 101 80 72 126 135 69 245 215 191 167 177 180 174 173 177 188 195 190 191 183 181 175 150 155 155 157 155 155 135 108 85
334 334 328 319 311 307 299 290 282 276 271 252 201 129 123 150 196 21 169 149 267 208 174 175 170 166 168 182 202 200 197 193 187 187 182 171 187 184 180 176 157 124 105
335 338 336 327 314 309 307 303 304 277 267 244 209 172 144 142 125 118 88 105 147 243 214 188 166 168 173 180 201 208 203 202 197 186 189 195 201 205 217 219 204 166 125
340 339 338 334 320 308 316 305 310 279 278 268 254 216 204 187 163 145 131 128 128 136 176 202 191 191 193 185 193 202 209 203 205 199 198 206 217 226 237 234 218 223 174
343 341 339 338 336 319 312 306 297 270 262 241 251 237 240 236 229 204 197 190 197 182 177 180 190 178 187 186 183 179 187 191 199 204 199 211 217 222 224 222 218 220 220
350 349 349 353 356 340 304 293 292 289 271 265 251 242 241 246 241 228 223 229 232 209 203 215 193 185 178 188 193 174 188 186 188 193 200 213 217 218 220 224 226 226 231
0 360 356 360 353 342 317 301 312 307 282 316 261 250 246 238 238 228 232 241 237 203 200 204 203 190 183 180 183 204 217 213 215 201 208 217 226 225 231 232 230 235 240
17 13 8 4 354 345 319 302 297 291 284 292 295 263 262 240 235 234 234 225 218 210 208 195 196 198 195 194 185 192 245 256 205 215 206 219 229 233 239 243 246 249 253
30 27 23 12 4 352 347 325 315 306 292 282 293 302 287 255 238 234 230 220 213 212 195 195 195 198 193 204 196 211 235 251 224 212 228 214 228 235 243 247 251 255 261
35 32 34 34 34 25 20 21 8 2 2 343 317 320 296 268 263 247 226 217 208 207 205 212 204 206 201 221 222 214 227 238 246 253 250 238 242 249 252 252 253 253 256
31 31 31 32 35 37 39 40 32 31 26 26 28 59 26 12 291 287 262 238 216 209 214 203 210 222 228 210 216 217 221 221 239 244 251 245 245 257 256 259 257 258 255